Zurück zum Katalog

IRIDIUM 36

AktivKommunikationPO
NORAD 24967·PAYLOAD·🇺🇸 United States

Gestartet Sep 27, 1997 von Vandenberg Space Force Base

Loading…

Nächste Überflüge (nächste 24 Stunden)

TLE

AktuellSource: Space-Track

Epoche: Sep 14, 2026, 05:55 UTC

1 24967U 97056C   26257.24686773  .00000264  00000-0  80854-4 0  9991
2 24967  86.4018 342.1008 0002184  86.0268 274.1179 14.37989113517460

Verfolge IRIDIUM 36 in Echtzeit mit AllMySat

Download on the App Store